Danville, VA

12:57 PM EDT on May 24, 2017 (GMT -0400)
Danville Regional

Weather History for KDAN - June, 2013

Change the Weather History Date:

Thursday, June 13, 2013

  Actual Average Record
Temperature  
Mean Temperature 81 °F 74 °F  
Max Temperature 94 °F 84 °F 96 °F (1986)
Min Temperature 67 °F 65 °F 48 °F (1972)
Degree Days  
Heating Degree Days 0 0  
Month to date heating degree days 0 0  
Since 1 June heating degree days 0 0  
Since 1 July heating degree days 3778 3811  
Cooling Degree Days 16 9  
Month to date cooling degree days 127 102  
Year to date cooling degree days 289 246  
Since 1 June cooling degree days 127 102  
Growing Degree Days 30 (Base 50)    
Moisture  
Dew Point 67 °F    
Average Humidity 69    
Maximum Humidity 93    
Minimum Humidity 44    
Precipitation  
Precipitation 0.23 in 0.13 in 1.78 in (1989)
Month to date precipitation 3.11 1.80  
Year to date precipitation 23.32 19.68  
Snow  
Snow 0.00 in - - ()
Month to date snowfall 0.0  
Since 1 June snowfall 0.0  
Since 1 July snowfall 1.7  
Snow Depth 0.00 in    
Sea Level Pressure  
Sea Level Pressure 29.71 in    
Wind  
Wind Speed 7 mph (WSW)    
Max Wind Speed 33 mph    
Max Gust Speed 47 mph    
Visibility 7 miles    
Events Rain , Thunderstorm    
T = Trace of Precipitation, MM = Missing Value Source: NWS Daily Summary

Daily Weather History Graph

Daily Weather History Graph

Search for Another Location

Airport or City:

Trip Planner

Search our weather history database for the weather conditions in past years. The results will help you decide how hot, cold, wet, or windy it might be!

Date:

Astronomy

Jun. 13, 2013 Rise Set
Actual Time 5:58 AM EDT 8:36 PM EDT
Civil Twilight 5:27 AM EDT 9:07 PM EDT
Nautical Twilight 4:49 AM EDT 9:45 PM EDT
Astronomical Twilight 4:07 AM EDT 10:27 PM EDT
Moon 10:27 AM EDT (6/13) 11:49 PM EDT (6/13)
Length of Visible Light 15h 39m
Length of Day
14h 38m
Waxing Crescent, 21% of the Moon is Illuminated
Jun 13
Waxing Crescent
Jun 16
First Quarter
Jun 23
Full
Jun 30
Last Quarter
Jul 8
New

Hourly Weather History & Observations

Time (EDT) Temp. Heat Index Dew Point Humidity Pressure Visibility Wind Dir Wind Speed Gust Speed Precip Events Conditions
12:53 AM 77.0 °F - 73.0 °F 88% 29.83 in 7.0 mi SSW 4.6 mph - N/A   Clear
1:53 AM 75.0 °F - 72.0 °F 90% 29.81 in 7.0 mi SSW 3.5 mph - N/A   Clear
2:53 AM 75.0 °F - 72.0 °F 90% 29.81 in 7.0 mi Calm Calm - N/A   Clear
3:53 AM 73.9 °F - 72.0 °F 93% 29.80 in 6.0 mi WSW 3.5 mph - N/A   Clear
4:53 AM 73.0 °F - 71.1 °F 93% 29.77 in 5.0 mi South 4.6 mph - N/A   Clear
5:53 AM 73.0 °F - 70.0 °F 90% 29.77 in 4.0 mi Calm Calm - N/A   Clear
6:10 AM 71.6 °F - 69.8 °F 94% 29.80 in 1.8 mi WSW 3.5 mph - N/A   Clear
6:26 AM 73.4 °F - 69.8 °F 88% 29.79 in 3.0 mi SSW 4.6 mph - N/A   Clear
6:53 AM 73.0 °F - 71.1 °F 93% 29.75 in 4.0 mi SSW 4.6 mph - N/A   Clear
7:53 AM 77.0 °F - 72.0 °F 84% 29.74 in 9.0 mi SW 3.5 mph - N/A   Clear
8:53 AM 82.9 °F 88.8 °F 73.0 °F 72% 29.74 in 10.0 mi SSW 4.6 mph - N/A   Clear
9:53 AM 86.0 °F 90.7 °F 70.0 °F 59% 29.74 in 10.0 mi WSW 10.4 mph - N/A   Clear
10:53 AM 88.0 °F 92.9 °F 70.0 °F 55% 29.71 in 10.0 mi WSW 11.5 mph 19.6 mph N/A   Clear
11:53 AM 89.1 °F 93.7 °F 69.1 °F 52% 29.68 in 10.0 mi SW 15.0 mph - N/A   Clear
12:53 PM 91.0 °F 95.6 °F 69.1 °F 48% 29.65 in 10.0 mi SW 13.8 mph 20.7 mph N/A   Clear
1:53 PM 91.9 °F 95.9 °F 68.0 °F 45% 29.62 in 10.0 mi SW 15.0 mph 21.9 mph N/A   Clear
2:53 PM 91.9 °F 95.9 °F 68.0 °F 45% 29.60 in 10.0 mi SW 20.7 mph 27.6 mph N/A   Clear
3:53 PM 91.9 °F 95.4 °F 66.9 °F 44% 29.58 in 10.0 mi WSW 16.1 mph 27.6 mph N/A   Scattered Clouds
4:17 PM 84.2 °F 84.4 °F 60.8 °F 45% 29.67 in 3.0 mi WNW 20.7 mph 46.0 mph N/A   Haze
4:29 PM 77.0 °F - 62.6 °F 61% 29.71 in 5.0 mi West 33.4 mph 43.7 mph 0.02 in Rain , Thunderstorm Light Rain
4:32 PM 73.4 °F - 64.4 °F 73% 29.69 in 1.5 mi West 28.8 mph 47.2 mph 0.12 in Rain , Thunderstorm Heavy Rain
4:40 PM 69.8 °F - 62.6 °F 78% 29.67 in 0.8 mi West 12.7 mph 33.4 mph 0.21 in Rain , Thunderstorm Heavy Rain
4:44 PM 69.8 °F - 62.6 °F 78% 29.69 in 2.0 mi WSW 12.7 mph 21.9 mph 0.22 in Rain , Thunderstorm Rain
4:51 PM 69.8 °F - 62.6 °F 78% 29.68 in 8.0 mi WNW 8.1 mph - 0.23 in Rain , Thunderstorm Light Rain
4:53 PM 69.1 °F - 63.0 °F 81% 29.65 in 9.0 mi NW 9.2 mph - 0.23 in Rain , Thunderstorm Light Rain
5:30 PM 69.8 °F - 64.4 °F 83% 29.69 in 10.0 mi SSW 6.9 mph - 0.00 in   Partly Cloudy
5:53 PM 68.0 °F - 64.0 °F 87% 29.65 in 10.0 mi SSW 6.9 mph - 0.00 in   Clear
6:53 PM 70.0 °F - 66.0 °F 87% 29.64 in 10.0 mi SSW 3.5 mph - N/A   Clear
7:53 PM 70.0 °F - 64.9 °F 84% 29.65 in 10.0 mi SW 8.1 mph - N/A   Partly Cloudy
8:53 PM 70.0 °F - 64.9 °F 84% 29.67 in 10.0 mi SW 4.6 mph - N/A   Clear
9:53 PM 68.0 °F - 64.9 °F 90% 29.67 in 10.0 mi Calm Calm - N/A   Clear
10:53 PM 70.0 °F - 64.9 °F 84% 29.70 in 10.0 mi NW 5.8 mph - N/A   Clear
11:53 PM 70.0 °F - 62.1 °F 76% 29.73 in 10.0 mi West 4.6 mph - N/A   Clear